Retour au catalogue

STARLINK-6294

ActifCommunicationsVLEO
NORAD 57225·PAYLOAD·🇺🇸 United States

Lancé Jul 7, 2023 depuis Vandenberg Space Force Base

Loading…

Prochains Passages (prochaines 24 heures)

TLE

FraisSource: CelesTrak SupGP

Époque: Sep 15, 2026, 02:40 UTC

1 57225C 23094H   26258.11159722 -.00038545  00000+0 -13959-2 0  2583
2 57225  43.0039  41.3665 0002011 272.8881 329.7844 15.27600052    13

Suivez STARLINK-6294 en temps réel avec AllMySat

Download on the App Store